Home > Weather > Erkelenz > Past weeks

Flag for Germany Past Weather in Erkelenz, North Rhine-Westphalia, Germany — Yesterday and Last 2 Weeks

Now
61 °F

Sprinkles. Clear.


Feels Like: 61 °F
Forecast: 57 / 73 °F
Wind: 2 mph from North

Location: Monchengladbach Airport

Current Time: May 27, 2016 at 10:40:40 AM

Latest Report: May 27, 2016 at 9:50 AM


Visibility: 5 mi

Pressure: 29.98 "Hg

Humidity: 83%

Dew Point: 55 °F

Location of ErkelenzLocation

Past Weather in Erkelenz — Graph

°F

Erkelenz Temperature Yesterday

Maximum temperature yesterday: 72 °F (at 3:50 PM)
Minimum temperature yesterday: 54 °F (at 7:50 AM)
Average temperature yesterday: 66 °F

High & Low Weather Summary for the Past Weeks

 TemperatureHumidityPressure
High77 °F (May 12, 2:20 PM)100% (May 22, 7:20 PM)30.12 "Hg (May 22, 7:20 PM)
Low45 °F (May 15, 7:50 AM)25% (May 13, 5:50 PM)29.47 "Hg (May 12, 1:50 PM)
Average60 °F63%29.90 "Hg
* Reported May 12 9:20 AM — May 27 9:20 AM, Erkelenz, Weather by CustomWeather, © 2016

Note: Actual official high and low records may vary slightly from our data, if they occured in-between our weather recording intervals... More about our weather records

Advertising

Erkelenz Weather History for the Previous 24 Hours

Scroll right to see more
 ConditionsComfort  
Time TempWeatherWind HumidityBarometerVisibility
9:20 AM
Fri, May 27
61 °FSunny.3 mph83%29.98 "Hg10 mi
8:50 AM61 °FClear.2 mph83%29.98 "Hg5 mi
8:20 AM61 °FClear.2 mph83%29.98 "Hg5 mi
7:50 AM59 °FBroken clouds.3 mph82%29.98 "Hg5 mi
8:20 PM
Thu, May 26
68 °FPassing clouds.7 mph53%29.95 "HgN/A
7:50 PM68 °FPassing clouds.6 mph53%29.95 "HgN/A
7:20 PM70 °FPassing clouds.6 mph43%29.95 "HgN/A
6:50 PM70 °FPassing clouds.6 mph50%29.95 "HgN/A
6:20 PM70 °FPassing clouds.5 mph46%29.98 "HgN/A
5:50 PM70 °FClear.5 mph46%29.98 "Hg10 mi
5:20 PM70 °FClear.5 mph46%29.98 "Hg10 mi
4:50 PM72 °FClear.5 mph47%29.98 "Hg10 mi
4:20 PM70 °FClear.6 mph46%29.98 "Hg10 mi
3:50 PM72 °FClear.5 mph47%29.98 "Hg10 mi
3:20 PM70 °FClear.5 mph43%30.01 "Hg10 mi
2:50 PM68 °FPassing clouds.5 mph49%30.01 "HgN/A
2:20 PM70 °FClear.3 mph50%30.01 "Hg10 mi
1:50 PM66 °FPassing clouds.3 mph49%30.01 "HgN/A
1:20 PM68 °FScattered clouds.5 mph53%30.01 "HgN/A
12:50 PM66 °FPassing clouds.5 mph56%30.01 "HgN/A
12:20 PM66 °FScattered clouds.2 mph60%30.01 "HgN/A
11:50 AM64 °FPassing clouds.3 mph64%30.01 "Hg6 mi
11:20 AM64 °FPassing clouds.3 mph68%30.01 "Hg5 mi
10:50 AM63 °FPassing clouds.5 mph73%30.01 "Hg4 mi
10:20 AM61 °FClear.5 mph77%30.01 "Hg4 mi
Weather by CustomWeather, © 2016

See weather overviewHow to use our weather pages